ONEWEB-0201, 48241

Orbit data source: Space-Track

ONEWEB-0201, 48241 is a payload satellite owned by One Web (NAA) (UK) in LEO that was launched on Sun, 25 Apr 2021 UTC via a SOYUZ-2-1B launch vehicle from the Vostochny Cosmodrome (VOSTO). Payload-class satellites include a variety of spacecraft equipped with specific instruments for various scientific and technological missions. These include communications satellites like Starlink; space stations such as the ISS; scientific satellites like the Hubble; Earth observation satellites from companies like Planet Labs, Umbra, and HawkEye 360; GPS; miniature CubeSats for education and research; and military/defense satellites.

Loading next visibility...
Identifier
48241, 2021-031AH
Orbit
LEO
Country
Flag of UKUK
Related business
Manufacturer
One Web
Mission
Operational Commercial Communications
Bus & Motor
ARROW, Unknown motor
Mass
148 kg wet, ~140 kg dry
Launch date (UTC)
2021-04-25 (5 years ago)
Launch vehicle
SOYUZ-2-1B
Launch site
Vostochny Cosmodrome (VOSTO)
Object type
Payload
Rocket body
Debris
Shape & HBR
Trap Box + 2 Pan, 6.7 m
Radar Cross Section
3.464 m², Large (>1 m²)

Expand to show TLE details & history
Last TLE update: 15 hours ago

TLE from 15 hours ago
0 ONEWEB-0201
1 48241U 21031AH  26094.51613308 -.00000056  00000-0 -18483-3 0  9994
2 48241  87.8935 304.4233 0001324  79.8593 280.2686 13.14502694238708
Epoch: 2026-04-04T12:23Z
TLE epoch observation values (Epoch: 2026-04-04T12:23:13.898Z)
Latitude
-0°
Longitude
-74.2194°
Altitude
1,208.506 km
Speed
7.25 km/s
True Right ascension
20h 17m 41s
True Declination
0° 00' 00"
Sunlit
Object was in daylight at epoch
Visualization orbit readout
Latitude
Unknown
Longitude
Unknown
Altitude
Unknown
Speed
Unknown
Apparent Right ascension
Unknown
Apparent Declination
Unknown
Sunlit
N/A
Visualization observer readout
Local Sidereal Time
09:24:56
Azimuth
Unknown
Elevation
Unknown
Doppler factor
Unknown
Orbital elements
Apogee altitude
1,203.908 km
Perigee altitude
1,201.901 km
Semi-major axis
7,581.041 km
Eccentricity
0.00013
Inclination
87.8935°
RAAN
304.4233°
Arg. of periapsis
79.8593°
True anomaly
280.25367°
Mean anomaly
280.2686°
Eccentric anomaly
280.26114°
Mean motion
3.28814 °/min
Orbital period
109.48 mins
BSTAR
-0.00018483
Loading maneuver chart data...
Computing Atmospheric mass density...
Loading historical data...
Loading historical data...
Loading historical data...
Loading historical data...
Loading historical data...
Loading historical data...
Loading historical data...

Documentation

Showing up to 5 results
|